www.pogodaiklimat.ru

Погода и климат >> Архив погоды >> Индонезия >> Гесер


ПОГОДА в Гесере

  • Прогноз погоды в Гесере
  • Монитор погоды в Гесере

АРХИВ ПОГОДЫ в Гесере

Время (UTC), дата Ветер
(напр.,м/с)
 
Видим.   Явления Облачность Т
(С)
Тd
(С)
f
(%)
Тe
(С)
Тes
(С)
Комфортность P
(гПа)
Po
(гПа)
Тmin
(С)
Tmax
(С)
R
(мм)
R24
(мм)
S
(см)
18 16.08 Ю 4 6000 м мгла 9/4 420 м
[Cb cap Ac trans Ci sp]
+25.0 +24.2 95 +34 +34 очень
душно
1012.3 1012.1
00 17.08 ЮВ 3 6000 м осадки на расстоянии 10/5 420 м
[Cb cap Ac As Cs]
+25.2 +23.7 91 +34 +36 очень
душно
1014.1 1013.9 +24.2 0.5 0.6
03 17.08 ЮВ 2 6000 м осадки на расстоянии 9/4 420 м
[Cb cap Ac As Ci fib]
+27.4 +24.6 85 +39 +46 очень
душно
1013.2 1013.0
06 17.08 Ю 4 7000 м мгла 9/4 420 м
[Cb calv Ac trans Ci sp]
+27.2 +24.2 84 +38 +41 очень
душно
1011.3 1011.1
09 17.08 Ю 4 7000 м мгла 9/3 450 м
[Cu med, cong Ac trans Ci sp]
+25.8 +24.0 90 +36 +36 очень
душно
1011.3 1011.1
12 17.08 Ю 3 6000 м мгла 9/3 450 м
[Cu med, cong Ac trans Ci fib]
+25.3 +24.2 94 +35 +35 очень
душно
1013.7 1013.5 +28.7
15 17.08 Ю 3 6000 м мгла 9/3 450 м
[Cu med, cong Ac trans Ci fib]
+25.3 +24.3 94 +35 +35 очень
душно
1014.0 1013.8
18 17.08 Ю 4 6000 м мгла 8/4 420 м
[Cb cap Ac trans Ci sp]
+25.0 +24.3 96 +35 +35 очень
душно
1012.3 1012.1
00 18.08 Ю 3 7000 м мгла 8/3 450 м
[Cu med, cong Ac trans Ci sp]
+26.4 +24.6 90 +37 +40 очень
душно
1013.5 1013.3 +25.0 0.5
03 18.08 ЮВ 3 7000 м мгла 9/3 450 м
[Cu Sc Ac As Ci sp]
+28.0 +24.8 83 +40 +47 очень
душно
1013.2 1013.0
06 18.08 Ю 4 7000 м мгла 6/3 450 м
[Cu med, cong Ac trans Ci fib]
+26.5 +23.8 85 +36 +41 очень
душно
1010.7 1010.5
09 18.08 Ю 4 7000 м мгла 6/3 450 м
[Cu med, cong Ac trans Ci fib]
+25.9 +23.8 88 +35 +35 очень
душно
1010.4 1010.2
12 18.08 Ю 4 7000 м мгла 6/3 450 м
[Cu med, cong Ac trans Ci sp]
+25.4 +24.2 93 +35 +35 очень
душно
1012.2 1012.0 +28.8
15 18.08 Ю 3 7000 м мгла 8/4 420 м
[Cb cap Ac trans Ci sp]
+25.4 +24.2 93 +35 +35 очень
душно
1012.5 1012.3
18 18.08 Ю 5 6000 м осадки на расстоянии 9/5 420 м
[Cb cap Ac As Ci sp]
+25.2 +24.2 94 +35 +35 очень
душно
1011.3 1011.1
00 19.08 Ю 1 5000 м осадки на расстоянии 10/5 420 м
[Cb cap As op]
+24.5 +23.7 95 +33 +34 очень
душно
1013.0 1012.8 +23.7 6
03 19.08 Ю 5 7000 м мгла 6/3 450 м
[Cu med, cong Ac trans Ci fib]
+26.6 +23.8 85 +37 +43 очень
душно
1012.2 1012.0
06 19.08 Ю 5 7000 м мгла 8/4 420 м
[Cb cap Ac trans Ci sp]
+26.6 +23.6 84 +36 +39 очень
душно
1009.9 1009.7
09 19.08 Ю 5 7000 м мгла 9/4 420 м
[Cb cap Ac trans Ci sp]
+25.8 +23.4 87 +35 +35 очень
душно
1010.0 1009.8
12 19.08 Ю 5 6000 м мгла 9/4 420 м
[Cb cap Ac trans Ci sp]
+25.6 +24.2 92 +35 +35 очень
душно
1012.4 1012.2 +28.0
15 19.08 Ю 5 6000 м осадки на расстоянии 9/5 420 м
[Cb cap Ac As Ci sp]
+25.4 +24.0 92 +35 +35 очень
душно
1013.1 1012.9
18 19.08 Ю 7 6000 м мгла 8/4 420 м
[Cb calv Ac trans Ci fib]
+25.3 +23.5 90 +34 +34 очень
душно
1011.4 1011.2
00 20.08 ЮВ 5 5000 м осадки на расстоянии 9/5 420 м
[Cb cap Ac As Cs]
+25.6 +22.9 85 +34 +35 очень
душно
1013.9 1013.7 +24.0
03 20.08 ЮВ 3 6000 м осадки на расстоянии 9/4 420 м
[Cb cap Ac As Ci sp]
+28.2 +23.8 77 +39 +45 очень
душно
1012.5 1012.3
06 20.08 ЮВ 4 6000 м мгла 9/4 420 м
[Cb cap Ac trans Ci sp]
+28.0 +23.9 78 +39 +42 очень
душно
1010.3 1010.1
09 20.08 ЮВ 2 6000 м мгла 9/4 420 м
[Cb cap Ac trans Ci sp]
+26.0 +23.5 86 +35 +35 очень
душно
1010.7 1010.5
12 20.08 ЮВ 4 6000 м мгла 9/5 420 м
[Cb cap Ac trans Ci sp]
+25.0 +23.5 91 +34 +34 очень
душно
1012.0 1011.8 +29.6
15 20.08 ЮВ 3 6000 м мгла 8/4 420 м
[Cb cap Ac trans Ci sp]
+25.0 +22.9 88 +33 +33 очень
душно
1012.6 1012.4
18 20.08 ЮВ 3 7000 м мгла 9/4 420 м
[Cb cap Ac trans Ci sp]
+25.0 +22.2 84 +32 +32 очень
душно
1011.3 1011.1
00 21.08 ЮВ 3 7000 м мгла 9/4 420 м
[Cb cap Ac trans Ci sp]
+26.4 +21.9 76 +34 +36 очень
душно
1013.1 1012.9 +24.6
03 21.08 ЮВ 4 7000 м мгла 9/4 420 м
[Cb cap Ac trans Ci sp]
+28.4 +22.6 71 +38 +43 очень
душно
1011.0 1010.8
06 21.08 ЮВ 4 6000 м мгла 9/6 420 м
[Cb cap Ac trans Ci sp]
+28.0 +22.0 70 +36 +38 очень
душно
1009.3 1009.1
09 21.08 ЮВ 3 6000 м мгла 10/5 420 м
[Cb cap Ac As Cs]
+25.8 +22.5 82 +34 +34 очень
душно
1010.2 1010.0
12 21.08 ЮВ 3 6000 м осадки на расстоянии 10/5 420 м
[Cb cap Ac As Cs]
+25.2 +24.5 96 +35 +35 очень
душно
1012.7 1012.5 +29.0
15 21.08 ЮВ 4 6000 м мгла 9/4 420 м
[Cb calv Ac As Cs]
+24.8 +22.9 89 +33 +33 очень
душно
1012.8 1012.6
18 21.08 ЮВ 3 6000 м мгла 8/4 420 м
[Cb cap Ac trans Ci sp]
+24.8 +22.8 89 +33 +33 очень
душно
1011.8 1011.6
00 22.08 ЮВ 3 6000 м мгла 9/5 420 м
[Cb cap Ac trans Ci sp]
+26.2 +22.9 82 +35 +37 очень
душно
1014.6 1014.4 +24.4
03 22.08 ЮВ 3 7000 м мгла 8/4 420 м
[Cb cap Ac trans Ci sp]
+27.8 +23.4 77 +38 +45 очень
душно
1012.6 1012.4
06 22.08 Ю 3 7000 м мгла 8/3 450 м
[Cu Sc Ac trans Ci sp]
+27.6 +23.5 78 +37 +42 очень
душно
1010.6 1010.4
09 22.08 ЮВ 2 7000 м мгла 8/3 450 м
[Cu med, cong Ac trans Ci sp]
+26.0 +23.0 84 +35 +35 очень
душно
1011.7 1011.5
12 22.08 Ю 4 7000 м мгла 6/3 450 м
[Cu med, cong Ac trans Ci fib]
+25.4 +23.3 88 +34 +34 очень
душно
1013.3 1013.1 +29.2
15 22.08 ЮВ 2 6000 м осадки на расстоянии 9/4 420 м
[Cb cap Ac As Ci fib]
+25.2 +23.9 93 +35 +35 очень
душно
1014.0 1013.8
18 22.08 ЮВ 3 4000 м слаб. дождь 10/6 400 м
[Cb cap Ac As]
+24.6 +23.6 94 +33 +33 очень
душно
1012.9 1012.7 0.1
00 23.08 ЮВ 3 7000 м мгла 8/3 450 м
[Cu med, cong Ac trans Ci sp]
+26.4 +24.3 88 +37 +40 очень
душно
1011.6 1011.4 +24.4 0.2
03 23.08 ЮВ 3 7000 м мгла 8/4 420 м
[Cb calv Ac trans Ci sp]
+27.2 +24.5 85 +38 +45 очень
душно
1013.7 1013.5
06 23.08 Ю 4 4700 м мгла 8/4 420 м
[Cb cap As op Ci fib]
+27.1 +23.8 82 +37 +40 очень
душно
1011.4 1011.2
09 23.08 Ю 4 7000 м мгла 6/3 450 м
[Cu med, cong Ac trans Ci fib]
+26.0 +24.0 89 +36 +36 очень
душно
1012.0 1011.8
12 23.08 ЮВ 2 7000 м мгла 6/3 450 м
[Cu med, cong Ac trans Ci sp]
+25.2 +23.7 91 +34 +34 очень
душно
1013.6 1013.4 +28.8
15 23.08 Ю 3 7000 м мгла 6/3 450 м
[Cu med, cong Ac trans Ci sp]
+24.8 +23.2 91 +33 +33 очень
душно
1013.4 1013.2

 

Местоположение метеостанции Гесер (Индонезия): широта -3.80 долгота 130.83 высота над уровнем моря 3 м.

В архиве по умолчанию представлена погода в Гесере за последнюю неделю. Архивные данные за месяц целиком и за предыдущие месяцы, начиная с января 2011 года, Вы можете получить, выбрав интересующий диапазон дат из раскрывающегося списка и нажав кнопку "Ввод!".


*Определитесь, кто Вы:
робот инопланетянин человек

Внимание! Время в таблицах - всемирное. Для получения местного времени необходимо прибавить поправку, которая равна 9 ч.

Смотрите также архив погоды в соседних городах и на ближайших метеорологических станциях:

Погода в Неира (Индонезия) (131 км)
Погода в Факфаке (Индонезия) (187 км)
Погода в Амахаи (Индонезия) (222 км)
Погода в Туале (Индонезия) (298 км)
Погода в Амбоне (Индонезия) (305 км)
Погода в Аэропорту Соронг-Джефман (Индонезия) (321 км)
Погода в Каимана (Индонезия) (324 км)
Погода в Намлеа (Индонезия) (421 км)
Погода в Саумлаки (Индонезия) (468 км)
Погода в Маноквари (Индонезия) (483 км)

Пояснения к столбцам:

Ветер - указаны скорость ветра в м/с - средняя за 10 мин, порывы в срок и между сроками (в фигурных скобках) и направление, откуда дует ветер: С - северный, СВ - северо-восточный, В - восточный, ЮВ - юго-восточный, Ю - южный, ЮЗ - юго-западный, З - западный, СЗ - северо-западный.
Видимость - горизонтальная дальность видимости в метрах или километрах. При видимости от 1 до 10 км при отсутствии осадков обычно наблюдается дымка, при ухудшении видимости до 1 км и менее - туман. В сухую погоду видимость может ухудшаться дымом, пылью или мглою.
Явления - указаны атмосферные явления, наблюдавшиеся в срок или в последний час перед сроком; фигурными скобками обозначены явления, наблюдавшиеся между сроками (за 1-3 часа до срока); квадратными скобками обозначены град или гололедные отложения с указанием их диаметра в мм.
Облачность - указаны через наклонную черту общая и нижняя облачность в баллах и высота нижней границы облаков в метрах; квадратными скобками обозначены формы облаков: Ci - перистые, Cs - перисто-слоистые, Cc - перисто-кучевые, Ac - высококучевые, As - высокослоистые, Sc - слоисто-кучевые, Ns - слоисто-дождевые, Cu - кучевые, Cb - кучево-дождевые. Подробнее классификацию облаков см. в Атласе облаков (PDF).
T - Температура воздуха - температура, измеренная на высоте 2 м над землей.
Td - Температура точки росы - температура, при понижении до которой содержащийся в воздухе водяной пар достигнет насыщения.
f - Относительная влажность воздуха - влажноcть воздуха, измеренная на высоте 2 м над землей.
Te - Эффективная температура - температура, которую ощущает одетый по сезону человек в тени. Характеристика душности погоды. При расчете учитывается влияние влажности воздуха и скорости ветра на теплоощущения человека.
Tes - Эффективная температура на солнце - температура, которую ощущает человек, с поправкой на солнечный нагрев. Характеристика знойности погоды. Зависит от высоты солнца над горизонтом, облачности и скорости ветра. Ночью, в пасмурную погоду, а также при ветре 12 м/с и более поправка равна нулю.
P - Атмосферное давление - приведенное к уровню моря атмосферное давление.
Po - Атмосферное давление - измеренное на уровне метеостанции атмосферное давление.
Tmin - Минимальная температура - минимум температуры воздуха на высоте 2 м над землей.
Tmax - Максимальная температура - максимум температуры воздуха на высоте 2 м над землей.
R - Количество осадков - Количество выпавших осадков за период времени, мм. При наведении курсора мыши на число - период времени, за который выпало указанное количество осадков.
R24 - Количество осадков - Количество выпавших осадков за 24 часа, мм.
S - Снежный покров - Высота снежного покрова, см. При наведении курсора мыши на число - состояние снежного покрова и степень покрытия местности в баллах.